Regional Weather Roundup
Issued by NWS

Home | Current Version | Previous Version | Graphics & Text | Print | Product List | Glossary On
Versions: 1 2 3 4 5 6 7 8 9 10 11 12 13 14 15 16 17 18 19 20 21 22 23 24 25 26 27 28 29 30 31 32 33 34 35 36 37 38 39 40 41 42 43 44 45 46 47 48 49 50
000
ASUS43 KOAX 161410
RWRNE

WEATHER ROUNDUP FOR NEBRASKA
NATIONAL WEATHER SERVICE OMAHA NE
900 AM CDT WED APR 16 2014

NOTES: SATELLITE DATA IS BEING USED TO AUGMENT CLOUD COVER ABOVE
       12000 FEET.
       "FAIR" INDICATES FEW OR NO CLOUDS BELOW 12,000 FEET WITH NO
       SIGNIFICANT WEATHER AND/OR OBSTRUCTIONS TO VISIBILITY.

  * THESE STATIONS DO NOT REPORT WEATHER SUCH AS RAIN...SNOW OR FOG.

NEZ001>004-019>022-054>056-161500-
NEBRASKA PANHANDLE

CITY           SKY/WX    TMP DP  RH WIND       PRES   REMARKS
SCOTTSBLUFF    MOSUNNY   44  31  60 NW25G35   29.85R
ALLIANCE       CLOUDY    40  35  83 NW24G39   29.79R WCI  29
CHADRON        LGT RAIN  40  36  86 NW25G36   29.81R WCI  29
KIMBALL        MOSUNNY   39  30  71 NW23G32   29.84R WCI  28
SIDNEY         SUNNY     43  31  62 NW30G39   29.82R
$$

NEZ057>060-069>072-079>082-161500-
SOUTHWEST NEBRASKA

CITY           SKY/WX    TMP DP  RH WIND       PRES   REMARKS
NORTH PLATTE   PTSUNNY   48  38  68 NW18G29   29.70R
IMPERIAL       MOSUNNY   47  34  60 NW25G43   29.75R
LEXINGTON      PTSUNNY   46  31  56 NW16      29.65R
MCCOOK         CLOUDY    50  37  61 W12G37    29.72R
OGALLALA       MOSUNNY   46  34  64 N35G41    29.75R
$$

NEZ005>010-023>029-035>040-094-161500-
NORTH CENTRAL NEBRASKA

CITY           SKY/WX    TMP DP  RH WIND       PRES   REMARKS
VALENTINE      CLOUDY    35  31  85 NW20G29   29.70R FOG     WCI  24
AINSWORTH      CLOUDY    37  32  81 NW18G28   29.67R WCI  27
BROKEN BOW     PTSUNNY   48  34  58 NW23      29.64R
O`NEILL        CLOUDY    47  30  52 W14G22    29.61R
ORD            CLOUDY    45  26  47 SW8       29.62R
THEDFORD       CLOUDY    45  36  68 NW20G28   29.69R
$$

NEZ041-046>049-061>064-073>077-083>087-161500-
SOUTH CENTRAL NEBRASKA

CITY           SKY/WX    TMP DP  RH WIND       PRES   REMARKS
GRAND ISLAND   CLOUDY    47  23  38 S23G30    29.62F
AURORA         CLOUDY    48  24  39 S22G29    29.63F
HASTINGS       CLOUDY    47  21  35 S14G26    29.62F
HEBRON         PTSUNNY   51  22  31 S23G31    29.70F
HOLDREGE       CLOUDY    45  25  46 SW12      29.63S
KEARNEY *      CLOUDY    45  25  45 S15       29.64R
YORK           CLOUDY    48  25  40 S21G30    29.66F
$$

NEZ011>018-030>034-042>045-161500-
NORTHEAST NEBRASKA

CITY           SKY/WX    TMP DP  RH WIND       PRES   REMARKS
NORFOLK        CLOUDY    47  23  38 S23G31    29.60F
ALBION         CLOUDY    46  25  44 SW10      29.63R
BLAIR          CLOUDY    49  28  44 S29G36    29.71F
COLUMBUS *     CLOUDY    48  23  37 S18G24    29.66F
FREMONT        CLOUDY    50  26  38 S14G26    29.71S
TEKAMAH        CLOUDY    51  28  41 S23       29.71F
$$

NEZ050>053-065>068-078-088>093-161500-
SOUTHEAST NEBRASKA

CITY           SKY/WX    TMP DP  RH WIND       PRES   REMARKS
LINCOLN        CLOUDY    52  25  35 S24G43    29.70F
OMAHA EPPLEY   CLOUDY    48  29  47 S24G30    29.75S
BEATRICE       CLOUDY    51  24  34 S22G31    29.74F
FALLS CITY     CLOUDY    51  28  41 S24G36    29.84R
NEBRASKA CITY  CLOUDY    50  29  44 S26G33    29.79S
PLATTSMOUTH    CLOUDY    49  26  40 S24G33    29.75F
$$

NEZ044-045-051>053-067-161500-
OMAHA AREA

CITY           SKY/WX    TMP DP  RH WIND       PRES   REMARKS
OMAHA EPPLEY   CLOUDY    48  29  47 S24G30    29.75S
BLAIR          CLOUDY    49  28  44 S29G36    29.71F
FREMONT        CLOUDY    50  26  38 S14G26    29.71S
MILLARD        CLOUDY    50  28  43 S15G23    29.74S
OFFUTT AFB     CLOUDY    50  30  46 SE23G29   29.76F
PLATTSMOUTH    CLOUDY    49  26  40 S24G33    29.75F
WAHOO          FAIR      50  25  37 S20G30    29.71S
$$



USA.gov is the U.S. government's official web portal to all federal, state and local government web resources and services.